Regional Weather Roundup
Issued by NWS Goodland, KS

Home | Current Version | Previous Version | Text Only | Print | Product List | Glossary Off
Versions: 1 2 3 4 5 6 7 8 9 10 11 12 13 14 15 16 17 18 19 20 21 22 23 24 25 26 27 28 29 30 31 32 33 34 35 36 37 38 39 40 41 42 43 44 45 46 47 48 49 50

000
ASUS43 KGLD 232359
RWRGLD

GOODLAND FORECAST AREA HOURLY WEATHER ROUNDUP
NATIONAL WEATHER SERVICE GOODLAND KS
600 PM MDT MON APR 23 2018

...OFFICIAL OBSERVATIONS...

CITY           SKY/WX    TMP DP  RH WIND       PRES   REMARKS
GOODLAND KS    MOSUNNY   67  39  35 S17       30.02F
HILL CITY KS   SUNNY     69  40  34 SE6       30.04S
IMPERIAL NEB   MOSUNNY   68  37  32 SE14      30.01F
MCCOOK NEB     PTSUNNY   67  40  37 S10       30.04R
AKRON CO       SUNNY     66  43  43 SE20G28   30.00S
BURLINGTON CO  SUNNY     65  41  41 S17       30.04R
LIMON CO       MOSUNNY   62  38  40 SE10      30.04R
$$

...UNOFFICIAL OBSERVATIONS...

CITY           SKY/WX    TMP DP  RH WIND       PRES   REMARKS
NORTON KS      SUNNY     70  37  30 E8        30.04
KIT CARSON CO    N/A     68  43  40 MISG        N/A
YUMA CO        FAIR      64  30  27 SE16      30.01R
$$



USA.gov is the U.S. government's official web portal to all federal, state and local government web resources and services.